Janesville, WI

3:02 PM CST on November 13, 2019 (GMT -0600)
Rock County

Weather History for KJVL - October, 2019

Change the Weather History Date:

Monday, October 21, 2019

  Actual Average Record
Temperature  
Mean Temperature 56 °F -  
Max Temperature 66 °F 56 °F 78 °F (2007)
Min Temperature 46 °F 38 °F 24 °F (1989)
Degree Days  
Heating Degree Days 9    
Growing Degree Days 6 (Base 50)    
Moisture  
Dew Point 47 °F    
Average Humidity 80    
Maximum Humidity 100    
Minimum Humidity 45    
Precipitation  
Precipitation 0.00 in - - ()
Sea Level Pressure  
Sea Level Pressure 29.56 in    
Wind  
Wind Speed 12 mph ()    
Max Wind Speed 25 mph    
Max Gust Speed 38 mph    
Visibility 9.3 miles    
Events Rain    
Averages and records for this station are not official NWS values.
T = Trace of Precipitation, MM = Missing Value Source: Averaged Metar Reports

Daily Weather History Graph

Daily Weather History Graph

Search for Another Location

Airport or City:

Astronomy

Oct. 21, 2019 Rise Set
Actual Time 7:16 AM CDT 6:04 PM CDT
Civil Twilight 6:47 AM CDT 6:33 PM CDT
Nautical Twilight 6:14 AM CDT 7:06 PM CDT
Astronomical Twilight 5:41 AM CDT 7:38 PM CDT
Moon No Moon Rise 2:38 PM CDT (10/21)
Length of Visible Light 11h 45m
Length of Day
10h 48m
Waning Gibbous, 48% of the Moon is Illuminated
Oct 21
Waning Gibbous
Oct 27
New
Nov 4
First Quarter
Nov 12
Full
Nov 19
Last Quarter

Hourly Weather History & Observations

Time (CDT) Temp. Windchill Dew Point Humidity Pressure Visibility Wind Dir Wind Speed Gust Speed Precip Events Conditions
12:15 AM 50.0 °F - 42.8 °F 76% 29.85 in 10.0 mi ESE 10.4 mph - N/A   Clear
12:35 AM 48.2 °F - 42.8 °F 82% 29.83 in 10.0 mi East 9.2 mph - N/A   Clear
12:55 AM 48.2 °F - 44.6 °F 87% 29.83 in 10.0 mi East 9.2 mph - N/A   Mostly Cloudy
1:15 AM 46.4 °F 41.5 °F 46.4 °F 100% 29.80 in 7.0 mi East 10.4 mph - N/A   Scattered Clouds
1:35 AM 46.4 °F 42.4 °F 46.4 °F 100% 29.82 in 7.0 mi ESE 8.1 mph - N/A   Mostly Cloudy
1:55 AM 48.2 °F - 48.2 °F 100% 29.81 in 7.0 mi East 9.2 mph - N/A   Overcast
2:15 AM 50.0 °F - 50.0 °F 100% 29.79 in 10.0 mi East 9.2 mph - N/A   Overcast
2:35 AM 50.0 °F - 50.0 °F 100% 29.78 in 10.0 mi ESE 9.2 mph - N/A   Overcast
2:55 AM 50.0 °F - 50.0 °F 100% 29.77 in 10.0 mi ESE 11.5 mph - N/A   Overcast
3:15 AM 50.0 °F - 50.0 °F 100% 29.77 in 10.0 mi ESE 10.4 mph - N/A   Overcast
3:35 AM 50.0 °F - 50.0 °F 100% 29.75 in 10.0 mi ESE 12.7 mph - N/A   Overcast
3:55 AM 50.0 °F - 50.0 °F 100% 29.73 in 10.0 mi ESE 10.4 mph - N/A   Mostly Cloudy
4:15 AM 51.8 °F - 51.8 °F 100% 29.72 in 10.0 mi ESE 10.4 mph - N/A   Overcast
4:35 AM 51.8 °F - 51.8 °F 100% 29.69 in 10.0 mi ESE 13.8 mph 19.6 mph N/A   Overcast
4:55 AM 51.8 °F - 51.8 °F 100% 29.68 in 10.0 mi ESE 13.8 mph - N/A   Overcast
5:15 AM 51.8 °F - 51.8 °F 100% 29.67 in 10.0 mi ESE 15.0 mph 18.4 mph N/A   Overcast
5:45 AM 53.6 °F - 51.8 °F 94% 29.64 in 10.0 mi SE 11.5 mph 17.3 mph N/A   Mostly Cloudy
6:45 AM 55.4 °F - 51.8 °F 88% 29.58 in 10.0 mi ESE 16.1 mph 21.9 mph N/A   Mostly Cloudy
7:45 AM 57.2 °F - 51.8 °F 82% 29.54 in 10.0 mi ESE 13.8 mph 24.2 mph N/A   Overcast
8:45 AM 57.2 °F - 53.6 °F 88% 29.49 in 6.0 mi ESE 15.0 mph 24.2 mph N/A Rain Light Rain
9:45 AM 57.2 °F - 57.2 °F 100% 29.41 in 8.0 mi ESE 12.7 mph 25.3 mph N/A Rain Light Rain
10:45 AM 57.2 °F - 57.2 °F 100% 29.36 in 2.0 mi SE 19.6 mph 26.5 mph N/A Rain Light Rain
11:45 AM 60.8 °F - 60.8 °F 100% 29.35 in 5.0 mi South 19.6 mph 26.5 mph N/A Rain Light Rain
12:45 PM 62.6 °F - 62.6 °F 100% 29.34 in 7.0 mi South 19.6 mph 26.5 mph N/A Rain Light Rain
1:45 PM 64.4 °F - 57.2 °F 77% 29.33 in 10.0 mi SSW 15.0 mph 32.2 mph N/A   Mostly Cloudy
2:45 PM 66.2 °F - 48.2 °F 52% 29.33 in 10.0 mi SSW 15.0 mph 28.8 mph N/A   Mostly Cloudy
3:45 PM 64.4 °F - 44.6 °F 49% 29.35 in 10.0 mi SSW 20.7 mph 33.4 mph N/A   Scattered Clouds
4:45 PM 62.6 °F - 41.0 °F 45% 29.39 in 10.0 mi SW 25.3 mph 32.2 mph N/A   Scattered Clouds
5:45 PM 59.0 °F - 41.0 °F 51% 29.42 in 10.0 mi SSW 20.7 mph 32.2 mph N/A   Mostly Cloudy
6:45 PM 57.2 °F - 41.0 °F 55% 29.45 in 10.0 mi SSW 24.2 mph 38.0 mph N/A   Overcast
7:45 PM 53.6 °F - 37.4 °F 54% 29.48 in 10.0 mi SSW 20.7 mph 29.9 mph N/A   Overcast
8:45 PM 53.6 °F - 39.2 °F 58% 29.47 in 10.0 mi SW 19.6 mph 26.5 mph N/A   Overcast
8:55 PM 51.8 °F - 37.4 °F 58% 29.47 in 10.0 mi SSW 16.1 mph 25.3 mph N/A   Overcast
9:15 PM 51.8 °F - 39.2 °F 62% 29.47 in 10.0 mi SSW 17.3 mph 23.0 mph N/A   Overcast
9:35 PM 51.8 °F - 39.2 °F 62% 29.46 in 10.0 mi SSW 18.4 mph 24.2 mph N/A   Mostly Cloudy
9:55 PM 51.8 °F - 39.2 °F 62% 29.46 in 10.0 mi SSW 17.3 mph 24.2 mph N/A   Mostly Cloudy
10:15 PM 51.8 °F - 39.2 °F 62% 29.45 in 10.0 mi SSW 16.1 mph 23.0 mph N/A   Overcast
10:35 PM 51.8 °F - 39.2 °F 62% 29.44 in 10.0 mi SSW 15.0 mph 26.5 mph N/A   Overcast
10:55 PM 51.8 °F - 41.0 °F 67% 29.44 in 10.0 mi SSW 18.4 mph 25.3 mph N/A   Overcast
11:15 PM 51.8 °F - 41.0 °F 67% 29.43 in 10.0 mi SSW 17.3 mph 27.6 mph N/A   Overcast
11:35 PM 51.8 °F - 41.0 °F 67% 29.42 in 10.0 mi SSW 20.7 mph 28.8 mph N/A   Overcast
11:55 PM 51.8 °F - 41.0 °F 67% 29.41 in 10.0 mi SSW 19.6 mph 31.1 mph N/A   Overcast